Location: Westminster
(33.3626°N, 96.4619°W)
Time: 20:18:09
(UTC+00:00)

Cosmos 1515 Rocket - Pass Details

Date: 28 June 2022
Orbit: 604 x 630 km, 82.5° (Epoch: 17 August)

Event Time Altitude Azimuth Distance (km) Brightness Sun altitude
Rises 10:24:43 0° 345° (NNW) 2,900 7.3 -10.3°
Reaches altitude 10° 10:27:02 10° 339° (NNW) 1,986 6.4 -9.9°
Maximum altitude 10:31:10 42° 268° (W) 874 4.0 -9.2°
Drops below altitude 10° 10:35:16 10° 197° (SSW) 1,958 5.7 -8.5°
Enters shadow 10:37:10 - 191° (S) 2,702 6.4 -8.2°
